Time,TemperatureF,DewpointF,PressureIn,WindDirection,WindDirectionDegrees,WindSpeedMPH,WindSpeedGustMPH,Humidity,HourlyPrecipIn,Conditions,Clouds,dailyrainin,SolarRadiationWatts/m^2,SoftwareType,DateUTC
2013-09-14 00:01:00,78.0,75.1,29.72,SW,231,3.0,7.0,91,0.00,,,0.00,0000,Weather View 32 v70,2013-09-14 04:01:00,
2013-09-14 00:06:00,78.0,75.1,29.72,West,276,0.0,6.0,91,0.00,,,0.00,0000,Weather View 32 v70,2013-09-14 04:06:00,
2013-09-14 00:11:00,78.0,75.1,29.72,North,6,2.0,6.0,91,0.00,,,0.00,0000,Weather View 32 v70,2013-09-14 04:11:00,
2013-09-14 00:16:00,78.0,75.1,29.72,West,276,1.0,6.0,91,0.00,,,0.00,0000,Weather View 32 v70,2013-09-14 04:16:00,
2013-09-14 00:21:00,77.0,74.2,29.72,SSW,208,3.0,6.0,91,0.00,,,0.00,0000,Weather View 32 v70,2013-09-14 04:21:00,
2013-09-14 00:26:00,77.0,74.5,29.72,SSW,208,3.0,5.0,92,0.00,,,0.00,0000,Weather View 32 v70,2013-09-14 04:26:00,
2013-09-14 00:31:00,77.0,74.5,29.72,WSW,253,1.0,5.0,92,0.00,,,0.00,0000,Weather View 32 v70,2013-09-14 04:31:00,
2013-09-14 00:36:00,77.0,74.8,29.72,West,276,1.0,5.0,93,0.00,,,0.00,0000,Weather View 32 v70,2013-09-14 04:36:00,
2013-09-14 00:41:00,77.0,74.8,29.72,SW,231,2.0,5.0,93,0.00,,,0.00,0000,Weather View 32 v70,2013-09-14 04:41:00,
2013-09-14 00:46:00,77.0,75.1,29.72,SW,231,1.0,5.0,94,0.00,,,0.00,0000,Weather View 32 v70,2013-09-14 04:46:00,
2013-09-14 00:51:00,77.0,74.8,29.72,SSW,208,1.0,5.0,93,0.00,,,0.00,0000,Weather View 32 v70,2013-09-14 04:51:00,
2013-09-14 00:56:00,76.0,73.8,29.72,SSW,208,2.0,5.0,93,0.00,,,0.00,0000,Weather View 32 v70,2013-09-14 04:56:00,
2013-09-14 01:01:00,76.0,74.1,29.72,WSW,253,1.0,5.0,94,0.00,,,0.00,0000,Weather View 32 v70,2013-09-14 05:01:00,
2013-09-14 01:06:00,76.0,74.1,29.72,SW,231,3.0,5.0,94,0.00,,,0.00,0000,Weather View 32 v70,2013-09-14 05:06:00,
2013-09-14 01:11:00,77.0,75.4,29.72,SW,231,3.0,5.0,95,0.00,,,0.00,0000,Weather View 32 v70,2013-09-14 05:11:00,
2013-09-14 01:16:00,77.0,75.1,29.72,SW,231,1.0,5.0,94,0.00,,,0.00,0000,Weather View 32 v70,2013-09-14 05:16:00,
2013-09-14 01:21:00,77.0,75.1,29.72,SW,231,1.0,5.0,94,0.00,,,0.00,0000,Weather View 32 v70,2013-09-14 05:21:00,
2013-09-14 01:26:00,77.0,75.1,29.71,WSW,253,1.0,4.0,94,0.00,,,0.00,0000,Weather View 32 v70,2013-09-14 05:26:00,
2013-09-14 01:31:00,77.0,75.1,29.71,WSW,253,2.0,4.0,94,0.00,,,0.00,0000,Weather View 32 v70,2013-09-14 05:31:00,
2013-09-14 01:36:00,77.0,74.8,29.71,West,276,2.0,4.0,93,0.00,,,0.00,0000,Weather View 32 v70,2013-09-14 05:36:00,
2013-09-14 01:41:00,77.0,74.8,29.71,West,276,3.0,4.0,93,0.00,,,0.00,0000,Weather View 32 v70,2013-09-14 05:41:00,
2013-09-14 01:46:00,77.0,74.8,29.71,SW,231,2.0,4.0,93,0.00,,,0.00,0000,Weather View 32 v70,2013-09-14 05:46:00,
2013-09-14 01:51:00,77.0,74.8,29.71,SW,231,3.0,5.0,93,0.00,,,0.00,0000,Weather View 32 v70,2013-09-14 05:51:00,
2013-09-14 01:56:00,77.0,74.8,29.71,SW,231,2.0,5.0,93,0.00,,,0.00,0000,Weather View 32 v70,2013-09-14 05:56:00,
2013-09-14 02:01:00,77.0,74.8,29.71,SW,231,1.0,5.0,93,0.00,,,0.00,0000,Weather View 32 v70,2013-09-14 06:01:00,
2013-09-14 02:06:00,77.0,74.8,29.71,WSW,253,5.0,5.0,93,0.00,,,0.00,0000,Weather View 32 v70,2013-09-14 06:06:00,
2013-09-14 02:11:00,77.0,74.8,29.71,WSW,253,3.0,6.0,93,0.00,,,0.00,0000,Weather View 32 v70,2013-09-14 06:11:00,
2013-09-14 02:16:00,77.0,74.5,29.71,SSW,208,2.0,6.0,92,0.00,,,0.00,0000,Weather View 32 v70,2013-09-14 06:16:00,
2013-09-14 02:21:00,77.0,74.5,29.71,WSW,253,6.0,6.0,92,0.00,,,0.00,0000,Weather View 32 v70,2013-09-14 06:21:00,
2013-09-14 02:26:00,76.0,73.8,29.71,WSW,253,3.0,6.0,93,0.00,,,0.00,0000,Weather View 32 v70,2013-09-14 06:26:00,
2013-09-14 02:31:00,77.0,74.8,29.71,WSW,253,4.0,6.0,93,0.00,,,0.00,0000,Weather View 32 v70,2013-09-14 06:31:00,
2013-09-14 02:36:00,76.0,73.8,29.71,WSW,253,2.0,6.0,93,0.00,,,0.00,0000,Weather View 32 v70,2013-09-14 06:36:00,
2013-09-14 02:41:00,76.0,73.8,29.71,West,276,2.0,6.0,93,0.00,,,0.00,0000,Weather View 32 v70,2013-09-14 06:41:00,
2013-09-14 02:46:00,76.0,73.8,29.71,SW,231,2.0,6.0,93,0.00,,,0.00,0000,Weather View 32 v70,2013-09-14 06:46:00,
2013-09-14 02:51:00,76.0,73.8,29.71,SW,231,1.0,6.0,93,0.00,,,0.00,0000,Weather View 32 v70,2013-09-14 06:51:00,
2013-09-14 02:56:00,76.0,73.8,29.71,WSW,253,2.0,6.0,93,0.00,,,0.00,0000,Weather View 32 v70,2013-09-14 06:56:00,
2013-09-14 03:01:00,76.0,74.1,29.71,WSW,253,3.0,6.0,94,0.00,,,0.00,0000,Weather View 32 v70,2013-09-14 07:01:00,
2013-09-14 03:06:00,76.0,74.1,29.70,SW,231,3.0,6.0,94,0.00,,,0.00,0000,Weather View 32 v70,2013-09-14 07:06:00,
2013-09-14 03:11:00,76.0,74.1,29.70,SW,231,3.0,6.0,94,0.00,,,0.00,0000,Weather View 32 v70,2013-09-14 07:11:00,
2013-09-14 03:16:00,76.0,74.1,29.70,NNW,343,2.0,6.0,94,0.00,,,0.00,0000,Weather View 32 v70,2013-09-14 07:16:00,
2013-09-14 03:21:00,76.0,74.1,29.70,West,276,3.0,6.0,94,0.00,,,0.00,0000,Weather View 32 v70,2013-09-14 07:21:00,
2013-09-14 03:26:00,76.0,74.1,29.70,WNW,298,2.0,6.0,94,0.00,,,0.00,0000,Weather View 32 v70,2013-09-14 07:26:00,
2013-09-14 03:31:00,76.0,74.1,29.69,WSW,253,2.0,6.0,94,0.00,,,0.00,0000,Weather View 32 v70,2013-09-14 07:31:00,
2013-09-14 03:36:00,76.0,74.1,29.69,SW,231,2.0,6.0,94,0.00,,,0.00,0000,Weather View 32 v70,2013-09-14 07:36:00,
2013-09-14 03:41:00,76.0,74.1,29.70,West,276,2.0,6.0,94,0.00,,,0.00,0000,Weather View 32 v70,2013-09-14 07:41:00,
2013-09-14 03:46:00,75.0,73.1,29.70,West,276,3.0,6.0,94,0.00,,,0.00,0000,Weather View 32 v70,2013-09-14 07:46:00,
2013-09-14 03:51:00,75.0,73.5,29.70,West,276,3.0,6.0,95,0.00,,,0.00,0000,Weather View 32 v70,2013-09-14 07:51:00,
2013-09-14 03:56:00,75.0,73.5,29.70,West,276,3.0,7.0,95,0.00,,,0.00,0000,Weather View 32 v70,2013-09-14 07:56:00,
2013-09-14 04:01:00,75.0,73.1,29.71,WNW,298,5.0,7.0,94,0.00,,,0.00,0000,Weather View 32 v70,2013-09-14 08:01:00,
2013-09-14 04:06:00,75.0,73.1,29.71,WSW,253,4.0,7.0,94,0.00,,,0.00,0000,Weather View 32 v70,2013-09-14 08:06:00,
2013-09-14 04:11:00,75.0,73.1,29.71,WNW,298,2.0,7.0,94,0.00,,,0.00,0000,Weather View 32 v70,2013-09-14 08:11:00,
2013-09-14 04:16:00,76.0,74.5,29.71,SW,231,2.0,7.0,95,0.00,,,0.00,0000,Weather View 32 v70,2013-09-14 08:16:00,
2013-09-14 04:21:00,76.0,74.5,29.71,WNW,298,3.0,7.0,95,0.00,,,0.00,0000,Weather View 32 v70,2013-09-14 08:21:00,
2013-09-14 04:26:00,76.0,74.5,29.71,NNW,343,5.0,7.0,95,0.00,,,0.00,0000,Weather View 32 v70,2013-09-14 08:26:00,
2013-09-14 04:31:00,76.0,74.1,29.71,WNW,298,1.0,7.0,94,0.00,,,0.00,0000,Weather View 32 v70,2013-09-14 08:31:00,
2013-09-14 04:36:00,76.0,74.1,29.71,NW,321,3.0,7.0,94,0.00,,,0.00,0000,Weather View 32 v70,2013-09-14 08:36:00,
2013-09-14 04:41:00,75.0,73.1,29.71,WSW,253,3.0,7.0,94,0.00,,,0.00,0000,Weather View 32 v70,2013-09-14 08:41:00,
2013-09-14 04:46:00,75.0,73.1,29.72,NW,321,3.0,7.0,94,0.00,,,0.00,0000,Weather View 32 v70,2013-09-14 08:46:00,
2013-09-14 04:51:00,75.0,73.5,29.72,NE,51,2.0,7.0,95,0.00,,,0.00,0000,Weather View 32 v70,2013-09-14 08:51:00,
2013-09-14 04:56:00,75.0,73.5,29.72,NNW,343,3.0,7.0,95,0.00,,,0.00,0000,Weather View 32 v70,2013-09-14 08:56:00,
2013-09-14 05:01:00,76.0,74.5,29.72,North,6,3.0,6.0,95,0.00,,,0.00,0000,Weather View 32 v70,2013-09-14 09:01:00,
2013-09-14 05:06:00,76.0,74.5,29.72,North,6,2.0,6.0,95,0.00,,,0.00,0000,Weather View 32 v70,2013-09-14 09:06:00,
2013-09-14 05:11:00,76.0,74.1,29.72,NNW,343,2.0,6.0,94,0.00,,,0.00,0000,Weather View 32 v70,2013-09-14 09:11:00,
2013-09-14 05:16:00,76.0,74.1,29.72,NNE,28,2.0,7.0,94,0.00,,,0.00,0000,Weather View 32 v70,2013-09-14 09:16:00,
2013-09-14 05:21:00,76.0,74.1,29.72,East,96,1.0,8.0,94,0.00,,,0.00,0000,Weather View 32 v70,2013-09-14 09:21:00,
2013-09-14 05:26:00,76.0,74.1,29.73,NNE,28,5.0,8.0,94,0.00,,,0.00,0000,Weather View 32 v70,2013-09-14 09:26:00,
2013-09-14 05:31:00,76.0,74.1,29.73,North,6,3.0,8.0,94,0.00,,,0.00,0000,Weather View 32 v70,2013-09-14 09:31:00,
2013-09-14 05:36:00,76.0,74.1,29.73,NE,51,2.0,8.0,94,0.00,,,0.00,0000,Weather View 32 v70,2013-09-14 09:36:00,
2013-09-14 05:41:00,75.0,73.1,29.73,North,6,5.0,9.0,94,0.00,,,0.00,0000,Weather View 32 v70,2013-09-14 09:41:00,
2013-09-14 05:46:00,75.0,73.1,29.73,NE,51,3.0,9.0,94,0.00,,,0.00,0000,Weather View 32 v70,2013-09-14 09:46:00,
2013-09-14 05:51:00,75.0,73.5,29.73,North,6,4.0,9.0,95,0.00,,,0.00,0000,Weather View 32 v70,2013-09-14 09:51:00,
2013-09-14 05:56:00,75.0,73.5,29.73,ENE,73,4.0,9.0,95,0.00,,,0.00,0000,Weather View 32 v70,2013-09-14 09:56:00,
2013-09-14 06:01:00,75.0,73.5,29.73,NE,51,3.0,9.0,95,0.00,,,0.00,0000,Weather View 32 v70,2013-09-14 10:01:00,
2013-09-14 06:06:00,75.0,73.5,29.73,NNE,28,3.0,9.0,95,0.00,,,0.00,0000,Weather View 32 v70,2013-09-14 10:06:00,
2013-09-14 06:11:00,75.0,73.8,29.74,NE,51,1.0,9.0,96,0.00,,,0.00,0000,Weather View 32 v70,2013-09-14 10:11:00,
2013-09-14 06:16:00,75.0,73.8,29.74,North,6,2.0,9.0,96,0.00,,,0.00,0000,Weather View 32 v70,2013-09-14 10:16:00,
2013-09-14 06:21:00,75.0,73.8,29.74,ENE,73,5.0,9.0,96,0.00,,,0.00,0000,Weather View 32 v70,2013-09-14 10:21:00,
2013-09-14 06:26:00,75.0,73.5,29.74,East,96,4.0,9.0,95,0.00,,,0.00,0000,Weather View 32 v70,2013-09-14 10:26:00,
2013-09-14 06:31:00,75.0,73.1,29.74,ENE,73,1.0,9.0,94,0.00,,,0.00,0000,Weather View 32 v70,2013-09-14 10:31:00,
2013-09-14 06:36:00,76.0,73.2,29.75,NNE,28,6.0,9.0,91,0.00,,,0.00,0000,Weather View 32 v70,2013-09-14 10:36:00,
2013-09-14 06:41:00,76.0,71.8,29.75,NE,51,3.0,8.0,87,0.00,,,0.00,0000,Weather View 32 v70,2013-09-14 10:41:00,
2013-09-14 06:46:00,75.0,70.2,29.75,ENE,73,3.0,8.0,85,0.00,,,0.00,0000,Weather View 32 v70,2013-09-14 10:46:00,
2013-09-14 06:51:00,75.0,69.8,29.75,NNE,28,2.0,8.0,84,0.00,,,0.00,0000,Weather View 32 v70,2013-09-14 10:51:00,
2013-09-14 06:56:00,75.0,69.5,29.75,ENE,73,4.0,8.0,83,0.00,,,0.00,0000,Weather View 32 v70,2013-09-14 10:56:00,
2013-09-14 07:01:00,75.0,69.5,29.76,NE,51,3.0,8.0,83,0.00,,,0.00,0000,Weather View 32 v70,2013-09-14 11:01:00,
2013-09-14 07:06:00,75.0,69.1,29.76,NE,51,4.0,8.0,82,0.00,,,0.00,0000,Weather View 32 v70,2013-09-14 11:06:00,
2013-09-14 07:11:00,75.0,69.1,29.76,ENE,73,3.0,8.0,82,0.00,,,0.00,0000,Weather View 32 v70,2013-09-14 11:11:00,
2013-09-14 07:16:00,75.0,68.7,29.76,NNE,28,1.0,8.0,81,0.00,,,0.00,0010,Weather View 32 v70,2013-09-14 11:16:00,
2013-09-14 07:21:00,75.0,68.7,29.76,North,6,5.0,8.0,81,0.00,,,0.00,0010,Weather View 32 v70,2013-09-14 11:21:00,
2013-09-14 07:26:00,75.0,68.7,29.77,ENE,73,5.0,8.0,81,0.00,,,0.00,0020,Weather View 32 v70,2013-09-14 11:26:00,
2013-09-14 07:31:00,75.0,68.4,29.77,NE,51,3.0,8.0,80,0.00,,,0.00,0020,Weather View 32 v70,2013-09-14 11:31:00,
2013-09-14 07:36:00,75.0,68.4,29.78,NNE,28,3.0,8.0,80,0.00,,,0.00,0030,Weather View 32 v70,2013-09-14 11:36:00,
2013-09-14 07:41:00,75.0,68.0,29.78,ENE,73,5.0,10.0,79,0.00,,,0.00,0050,Weather View 32 v70,2013-09-14 11:41:00,
2013-09-14 07:46:00,75.0,67.6,29.78,NE,51,3.0,10.0,78,0.00,,,0.00,0050,Weather View 32 v70,2013-09-14 11:46:00,
2013-09-14 07:51:00,75.0,67.6,29.79,NE,51,5.0,10.0,78,0.00,,,0.00,0080,Weather View 32 v70,2013-09-14 11:51:00,
2013-09-14 07:56:00,75.0,67.3,29.79,North,6,5.0,10.0,77,0.00,,,0.00,0060,Weather View 32 v70,2013-09-14 11:56:00,
2013-09-14 08:01:00,75.0,67.3,29.79,ENE,73,4.0,10.0,77,0.00,,,0.00,0040,Weather View 32 v70,2013-09-14 12:01:00,
2013-09-14 08:06:00,75.0,67.3,29.79,NE,51,4.0,10.0,77,0.00,,,0.00,0110,Weather View 32 v70,2013-09-14 12:06:00,
2013-09-14 08:11:00,75.0,67.6,29.79,North,6,3.0,10.0,78,0.00,,,0.00,0130,Weather View 32 v70,2013-09-14 12:11:00,
2013-09-14 08:16:00,75.0,67.3,29.79,ESE,118,2.0,10.0,77,0.00,,,0.00,0150,Weather View 32 v70,2013-09-14 12:16:00,
2013-09-14 08:21:00,75.0,67.3,29.80,ENE,73,6.0,10.0,77,0.00,,,0.00,0160,Weather View 32 v70,2013-09-14 12:21:00,
2013-09-14 08:26:00,75.0,67.6,29.80,North,6,2.0,10.0,78,0.00,,,0.00,0160,Weather View 32 v70,2013-09-14 12:26:00,
2013-09-14 08:31:00,75.0,67.6,29.80,East,96,6.0,10.0,78,0.00,,,0.00,0190,Weather View 32 v70,2013-09-14 12:31:00,
2013-09-14 08:36:00,75.0,68.0,29.80,ENE,73,2.0,10.0,79,0.00,,,0.00,0190,Weather View 32 v70,2013-09-14 12:36:00,
2013-09-14 08:41:00,75.0,67.6,29.80,NE,51,6.0,9.0,78,0.00,,,0.00,0120,Weather View 32 v70,2013-09-14 12:41:00,
2013-09-14 08:46:00,75.0,68.0,29.81,NE,51,1.0,9.0,79,0.00,,,0.00,0170,Weather View 32 v70,2013-09-14 12:46:00,
2013-09-14 08:51:00,75.0,68.0,29.81,ENE,73,5.0,9.0,79,0.00,,,0.00,0180,Weather View 32 v70,2013-09-14 12:51:00,
2013-09-14 08:56:00,76.0,68.6,29.81,NNE,28,4.0,9.0,78,0.00,,,0.00,0270,Weather View 32 v70,2013-09-14 12:56:00,
2013-09-14 09:01:00,76.0,68.6,29.81,ESE,118,3.0,10.0,78,0.00,,,0.00,0290,Weather View 32 v70,2013-09-14 13:01:00,
2013-09-14 09:06:00,76.0,68.2,29.81,NE,51,6.0,10.0,77,0.00,,,0.00,0170,Weather View 32 v70,2013-09-14 13:06:00,
2013-09-14 09:11:00,75.0,67.3,29.81,NNE,28,6.0,10.0,77,0.00,,,0.00,0220,Weather View 32 v70,2013-09-14 13:11:00,
2013-09-14 09:16:00,76.0,68.2,29.81,ENE,73,2.0,10.0,77,0.00,,,0.00,0260,Weather View 32 v70,2013-09-14 13:16:00,
2013-09-14 09:21:00,76.0,68.2,29.81,ENE,73,3.0,10.0,77,0.00,,,0.00,0300,Weather View 32 v70,2013-09-14 13:21:00,
2013-09-14 09:26:00,76.0,68.2,29.81,NE,51,3.0,10.0,77,0.00,,,0.00,0290,Weather View 32 v70,2013-09-14 13:26:00,
2013-09-14 09:31:00,76.0,67.9,29.81,NNE,28,3.0,10.0,76,0.00,,,0.00,0330,Weather View 32 v70,2013-09-14 13:31:00,
2013-09-14 09:36:00,76.0,67.5,29.81,ENE,73,7.0,10.0,75,0.00,,,0.00,0340,Weather View 32 v70,2013-09-14 13:36:00,
2013-09-14 09:41:00,76.0,67.5,29.81,SSW,208,4.0,10.0,75,0.00,,,0.00,0330,Weather View 32 v70,2013-09-14 13:41:00,
2013-09-14 09:46:00,77.0,68.8,29.82,ENE,73,3.0,10.0,76,0.00,,,0.00,0360,Weather View 32 v70,2013-09-14 13:46:00,
2013-09-14 09:51:00,77.0,68.4,29.82,ENE,73,1.0,10.0,75,0.00,,,0.00,0360,Weather View 32 v70,2013-09-14 13:51:00,
2013-09-14 09:56:00,77.0,68.4,29.82,NNE,28,6.0,10.0,75,0.00,,,0.00,0380,Weather View 32 v70,2013-09-14 13:56:00,
2013-09-14 10:01:00,77.0,68.8,29.82,NNW,343,3.0,10.0,76,0.00,,,0.00,0400,Weather View 32 v70,2013-09-14 14:01:00,
2013-09-14 10:06:00,77.0,68.4,29.82,North,6,3.0,10.0,75,0.00,,,0.00,0400,Weather View 32 v70,2013-09-14 14:06:00,
2013-09-14 10:11:00,78.0,69.8,29.83,North,6,3.0,10.0,76,0.00,,,0.00,0410,Weather View 32 v70,2013-09-14 14:11:00,
2013-09-14 10:16:00,78.0,69.4,29.83,NE,51,4.0,9.0,75,0.00,,,0.00,0370,Weather View 32 v70,2013-09-14 14:16:00,
2013-09-14 10:21:00,78.0,69.4,29.83,NNE,28,3.0,9.0,75,0.00,,,0.00,0410,Weather View 32 v70,2013-09-14 14:21:00,
2013-09-14 10:26:00,79.0,70.4,29.83,NE,51,5.0,9.0,75,0.00,,,0.00,0270,Weather View 32 v70,2013-09-14 14:26:00,
2013-09-14 10:31:00,78.0,69.4,29.83,NE,51,1.0,9.0,75,0.00,,,0.00,0300,Weather View 32 v70,2013-09-14 14:31:00,
2013-09-14 10:36:00,78.0,69.8,29.83,NNE,28,5.0,9.0,76,0.00,,,0.00,0280,Weather View 32 v70,2013-09-14 14:36:00,
2013-09-14 10:41:00,78.0,69.8,29.83,North,6,3.0,9.0,76,0.00,,,0.00,0270,Weather View 32 v70,2013-09-14 14:41:00,
2013-09-14 10:46:00,78.0,70.2,29.84,NNE,28,6.0,9.0,77,0.00,,,0.00,0330,Weather View 32 v70,2013-09-14 14:46:00,
2013-09-14 10:51:00,78.0,69.8,29.84,NNE,28,5.0,9.0,76,0.00,,,0.00,0390,Weather View 32 v70,2013-09-14 14:51:00,
2013-09-14 10:56:00,79.0,70.4,29.84,North,6,3.0,9.0,75,0.00,,,0.00,0520,Weather View 32 v70,2013-09-14 14:56:00,
2013-09-14 11:01:00,79.0,70.8,29.83,ENE,73,3.0,9.0,76,0.00,,,0.00,0310,Weather View 32 v70,2013-09-14 15:01:00,
2013-09-14 11:06:00,80.0,70.9,29.83,North,6,5.0,9.0,74,0.00,,,0.00,0550,Weather View 32 v70,2013-09-14 15:06:00,
2013-09-14 11:11:00,80.0,70.9,29.83,East,96,5.0,8.0,74,0.00,,,0.00,0570,Weather View 32 v70,2013-09-14 15:11:00,
2013-09-14 11:16:00,80.0,70.5,29.84,North,6,5.0,10.0,73,0.00,,,0.00,0550,Weather View 32 v70,2013-09-14 15:16:00,
2013-09-14 11:21:00,81.0,71.9,29.84,North,6,3.0,10.0,74,0.00,,,0.00,0550,Weather View 32 v70,2013-09-14 15:21:00,
2013-09-14 11:26:00,81.0,71.9,29.84,East,96,3.0,10.0,74,0.00,,,0.00,0550,Weather View 32 v70,2013-09-14 15:26:00,
2013-09-14 11:31:00,81.0,71.5,29.84,NNE,28,3.0,10.0,73,0.00,,,0.00,0560,Weather View 32 v70,2013-09-14 15:31:00,
2013-09-14 11:36:00,81.0,71.9,29.84,NNE,28,6.0,10.0,74,0.00,,,0.00,0560,Weather View 32 v70,2013-09-14 15:36:00,
2013-09-14 11:41:00,81.0,71.9,29.84,North,6,5.0,10.0,74,0.00,,,0.00,0570,Weather View 32 v70,2013-09-14 15:41:00,
2013-09-14 11:46:00,81.0,71.5,29.84,ENE,73,1.0,10.0,73,0.00,,,0.00,0580,Weather View 32 v70,2013-09-14 15:46:00,
2013-09-14 11:51:00,82.0,72.9,29.84,West,276,2.0,10.0,74,0.00,,,0.00,0600,Weather View 32 v70,2013-09-14 15:51:00,
2013-09-14 11:56:00,83.0,73.4,29.84,NNW,338,3.0,10.0,73,0.00,,,0.00,0570,Weather View 32 v70,2013-09-14 15:56:00,
2013-09-14 12:01:00,83.0,74.2,29.84,North,6,4.0,10.0,75,0.00,,,0.00,0590,Weather View 32 v70,2013-09-14 16:01:00,
2013-09-14 12:06:00,83.0,73.4,29.84,North,6,5.0,10.0,73,0.00,,,0.00,0610,Weather View 32 v70,2013-09-14 16:06:00,
2013-09-14 12:11:00,84.0,74.8,29.84,NNE,28,5.0,10.0,74,0.00,,,0.00,0610,Weather View 32 v70,2013-09-14 16:11:00,
2013-09-14 12:16:00,84.0,74.4,29.84,NE,51,2.0,10.0,73,0.00,,,0.00,0650,Weather View 32 v70,2013-09-14 16:16:00,
2013-09-14 12:21:00,84.0,74.0,29.84,NNE,28,4.0,9.0,72,0.00,,,0.00,0640,Weather View 32 v70,2013-09-14 16:21:00,
2013-09-14 12:26:00,84.0,74.8,29.84,West,276,3.0,9.0,74,0.00,,,0.00,0400,Weather View 32 v70,2013-09-14 16:26:00,
2013-09-14 12:31:00,84.0,74.4,29.84,North,6,6.0,9.0,73,0.00,,,0.00,0290,Weather View 32 v70,2013-09-14 16:31:00,
2013-09-14 12:36:00,84.0,74.0,29.84,ENE,73,3.0,9.0,72,0.00,,,0.00,0680,Weather View 32 v70,2013-09-14 16:36:00,
2013-09-14 12:41:00,84.0,74.8,29.84,NE,51,3.0,9.0,74,0.00,,,0.00,0660,Weather View 32 v70,2013-09-14 16:41:00,
2013-09-14 12:46:00,85.0,75.7,29.84,NE,51,3.0,9.0,74,0.00,,,0.00,0650,Weather View 32 v70,2013-09-14 16:46:00,
2013-09-14 12:51:00,85.0,75.7,29.84,North,6,3.0,9.0,74,0.00,,,0.00,0650,Weather View 32 v70,2013-09-14 16:51:00,
2013-09-14 12:56:00,85.0,75.7,29.84,SE,141,5.0,9.0,74,0.00,,,0.00,0680,Weather View 32 v70,2013-09-14 16:56:00,
2013-09-14 13:01:00,85.0,75.7,29.84,East,96,1.0,9.0,74,0.00,,,0.00,0660,Weather View 32 v70,2013-09-14 17:01:00,
2013-09-14 13:06:00,85.0,75.7,29.84,East,96,5.0,9.0,74,0.00,,,0.00,0660,Weather View 32 v70,2013-09-14 17:06:00,
2013-09-14 13:11:00,85.0,75.7,29.84,East,96,5.0,9.0,74,0.00,,,0.00,0660,Weather View 32 v70,2013-09-14 17:11:00,
2013-09-14 13:16:00,85.0,76.1,29.84,ESE,118,4.0,9.0,75,0.00,,,0.00,0660,Weather View 32 v70,2013-09-14 17:16:00,
2013-09-14 13:21:00,84.0,74.8,29.84,ESE,118,6.0,9.0,74,0.00,,,0.00,0650,Weather View 32 v70,2013-09-14 17:21:00,
2013-09-14 13:26:00,84.0,74.8,29.84,ESE,118,6.0,9.0,74,0.00,,,0.00,0660,Weather View 32 v70,2013-09-14 17:26:00,
2013-09-14 13:31:00,84.0,74.8,29.84,ENE,73,6.0,9.0,74,0.00,,,0.00,0660,Weather View 32 v70,2013-09-14 17:31:00,
2013-09-14 13:36:00,84.0,75.2,29.84,ESE,118,5.0,9.0,75,0.00,,,0.00,0690,Weather View 32 v70,2013-09-14 17:36:00,
2013-09-14 13:41:00,85.0,75.7,29.84,East,96,1.0,9.0,74,0.00,,,0.00,0240,Weather View 32 v70,2013-09-14 17:41:00,
2013-09-14 13:46:00,84.0,74.8,29.83,ESE,118,4.0,9.0,74,0.00,,,0.00,0610,Weather View 32 v70,2013-09-14 17:46:00,
2013-09-14 13:51:00,85.0,76.5,29.83,WNW,298,3.0,9.0,76,0.00,,,0.00,0750,Weather View 32 v70,2013-09-14 17:51:00,
2013-09-14 13:56:00,85.0,75.7,29.84,SSE,163,5.0,9.0,74,0.00,,,0.00,0720,Weather View 32 v70,2013-09-14 17:56:00,
2013-09-14 14:01:00,85.0,75.7,29.83,ESE,118,7.0,9.0,74,0.00,,,0.00,0750,Weather View 32 v70,2013-09-14 18:01:00,
2013-09-14 14:06:00,85.0,75.7,29.84,SE,141,4.0,10.0,74,0.00,,,0.00,0710,Weather View 32 v70,2013-09-14 18:06:00,
2013-09-14 14:11:00,85.0,75.7,29.84,ESE,118,7.0,11.0,74,0.00,,,0.00,0670,Weather View 32 v70,2013-09-14 18:11:00,
2013-09-14 14:16:00,84.0,75.2,29.84,SSE,163,5.0,11.0,75,0.00,,,0.00,0680,Weather View 32 v70,2013-09-14 18:16:00,
2013-09-14 14:21:00,84.0,74.8,29.84,ESE,118,7.0,11.0,74,0.00,,,0.00,0660,Weather View 32 v70,2013-09-14 18:21:00,
2013-09-14 14:26:00,84.0,74.8,29.84,ESE,118,3.0,11.0,74,0.00,,,0.00,0660,Weather View 32 v70,2013-09-14 18:26:00,
2013-09-14 14:31:00,85.0,75.7,29.84,East,96,6.0,11.0,74,0.00,,,0.00,0680,Weather View 32 v70,2013-09-14 18:31:00,
2013-09-14 14:36:00,85.0,75.3,29.84,ESE,118,6.0,11.0,73,0.00,,,0.00,0630,Weather View 32 v70,2013-09-14 18:36:00,
2013-09-14 14:41:00,84.0,74.4,29.84,East,96,8.0,11.0,73,0.00,,,0.00,0670,Weather View 32 v70,2013-09-14 18:41:00,
2013-09-14 14:46:00,85.0,75.7,29.84,SE,141,5.0,11.0,74,0.00,,,0.00,0250,Weather View 32 v70,2013-09-14 18:46:00,
2013-09-14 14:51:00,85.0,74.9,29.83,East,96,6.0,12.0,72,0.00,,,0.00,0660,Weather View 32 v70,2013-09-14 18:51:00,
2013-09-14 14:56:00,85.0,75.3,29.83,ENE,73,6.0,12.0,73,0.00,,,0.00,0670,Weather View 32 v70,2013-09-14 18:56:00,
2013-09-14 15:01:00,85.0,74.9,29.83,East,96,5.0,12.0,72,0.00,,,0.00,0660,Weather View 32 v70,2013-09-14 19:01:00,
2013-09-14 15:06:00,86.0,76.3,29.83,ENE,73,3.0,12.0,73,0.00,,,0.00,0640,Weather View 32 v70,2013-09-14 19:06:00,
2013-09-14 15:11:00,85.0,74.9,29.83,ENE,73,6.0,12.0,72,0.00,,,0.00,0600,Weather View 32 v70,2013-09-14 19:11:00,
2013-09-14 15:16:00,85.0,75.3,29.83,East,96,6.0,12.0,73,0.00,,,0.00,0620,Weather View 32 v70,2013-09-14 19:16:00,
2013-09-14 15:21:00,85.0,74.9,29.83,NE,51,5.0,12.0,72,0.00,,,0.00,0600,Weather View 32 v70,2013-09-14 19:21:00,
2013-09-14 15:26:00,85.0,75.3,29.83,ESE,118,5.0,12.0,73,0.00,,,0.00,0610,Weather View 32 v70,2013-09-14 19:26:00,
2013-09-14 15:31:00,86.0,77.1,29.82,SE,141,3.0,12.0,75,0.00,,,0.00,0590,Weather View 32 v70,2013-09-14 19:31:00,
2013-09-14 15:36:00,86.0,76.3,29.82,East,96,2.0,12.0,73,0.00,,,0.00,0580,Weather View 32 v70,2013-09-14 19:36:00,
2013-09-14 15:41:00,86.0,76.3,29.82,East,96,5.0,12.0,73,0.00,,,0.00,0580,Weather View 32 v70,2013-09-14 19:41:00,
2013-09-14 15:46:00,85.0,75.3,29.83,East,96,1.0,12.0,73,0.00,,,0.00,0580,Weather View 32 v70,2013-09-14 19:46:00,
2013-09-14 15:51:00,85.0,75.3,29.83,ESE,118,6.0,12.0,73,0.00,,,0.00,0570,Weather View 32 v70,2013-09-14 19:51:00,
2013-09-14 15:56:00,85.0,74.9,29.82,ESE,118,6.0,12.0,72,0.00,,,0.00,0560,Weather View 32 v70,2013-09-14 19:56:00,
2013-09-14 16:01:00,85.0,75.7,29.82,East,96,5.0,12.0,74,0.00,,,0.00,0550,Weather View 32 v70,2013-09-14 20:01:00,
2013-09-14 16:06:00,86.0,76.3,29.82,ENE,73,3.0,12.0,73,0.00,,,0.00,0530,Weather View 32 v70,2013-09-14 20:06:00,
2013-09-14 16:11:00,86.0,75.9,29.82,ESE,118,5.0,12.0,72,0.00,,,0.00,0520,Weather View 32 v70,2013-09-14 20:11:00,
2013-09-14 16:16:00,85.0,74.9,29.82,East,96,6.0,12.0,72,0.00,,,0.00,0510,Weather View 32 v70,2013-09-14 20:16:00,
2013-09-14 16:21:00,86.0,75.9,29.82,ESE,118,5.0,12.0,72,0.00,,,0.00,0520,Weather View 32 v70,2013-09-14 20:21:00,
2013-09-14 16:26:00,86.0,75.9,29.82,ENE,73,1.0,11.0,72,0.00,,,0.00,0500,Weather View 32 v70,2013-09-14 20:26:00,
2013-09-14 16:31:00,87.0,76.0,29.82,NE,51,3.0,10.0,70,0.00,,,0.00,0490,Weather View 32 v70,2013-09-14 20:31:00,
2013-09-14 16:36:00,86.0,75.0,29.82,NE,51,5.0,10.0,70,0.00,,,0.00,0480,Weather View 32 v70,2013-09-14 20:36:00,
2013-09-14 16:41:00,87.0,76.4,29.82,East,96,1.0,10.0,71,0.00,,,0.00,0470,Weather View 32 v70,2013-09-14 20:41:00,
2013-09-14 16:46:00,85.0,74.1,29.82,ENE,73,6.0,10.0,70,0.00,,,0.00,0120,Weather View 32 v70,2013-09-14 20:46:00,
2013-09-14 16:51:00,85.0,74.5,29.82,ENE,73,3.0,10.0,71,0.00,,,0.00,0440,Weather View 32 v70,2013-09-14 20:51:00,
2013-09-14 16:56:00,86.0,74.6,29.82,SSE,163,3.0,10.0,69,0.00,,,0.00,0420,Weather View 32 v70,2013-09-14 20:56:00,
2013-09-14 17:01:00,86.0,75.0,29.82,SSE,163,3.0,10.0,70,0.00,,,0.00,0420,Weather View 32 v70,2013-09-14 21:01:00,
2013-09-14 17:06:00,85.0,74.1,29.82,NNE,28,8.0,10.0,70,0.00,,,0.00,0380,Weather View 32 v70,2013-09-14 21:06:00,
2013-09-14 17:11:00,85.0,74.9,29.82,East,96,4.0,10.0,72,0.00,,,0.00,0380,Weather View 32 v70,2013-09-14 21:11:00,
2013-09-14 17:16:00,85.0,74.9,29.82,ENE,73,6.0,10.0,72,0.00,,,0.00,0360,Weather View 32 v70,2013-09-14 21:16:00,
2013-09-14 17:21:00,85.0,74.9,29.82,ENE,73,5.0,10.0,72,0.00,,,0.00,0360,Weather View 32 v70,2013-09-14 21:21:00,
2013-09-14 17:26:00,85.0,75.3,29.82,ENE,73,7.0,10.0,73,0.00,,,0.00,0350,Weather View 32 v70,2013-09-14 21:26:00,
2013-09-14 17:31:00,85.0,75.7,29.83,SSE,163,3.0,10.0,74,0.00,,,0.00,0330,Weather View 32 v70,2013-09-14 21:31:00,
2013-09-14 17:36:00,84.0,74.8,29.83,ENE,73,6.0,10.0,74,0.00,,,0.00,0320,Weather View 32 v70,2013-09-14 21:36:00,
2013-09-14 17:41:00,84.0,75.2,29.83,ESE,118,8.0,13.0,75,0.00,,,0.00,0310,Weather View 32 v70,2013-09-14 21:41:00,
2013-09-14 17:46:00,84.0,76.0,29.83,SE,141,5.0,13.0,77,0.00,,,0.00,0290,Weather View 32 v70,2013-09-14 21:46:00,
2013-09-14 17:51:00,84.0,76.0,29.83,East,96,7.0,13.0,77,0.00,,,0.00,0290,Weather View 32 v70,2013-09-14 21:51:00,
2013-09-14 17:56:00,83.0,75.4,29.83,ESE,118,3.0,13.0,78,0.00,,,0.00,0270,Weather View 32 v70,2013-09-14 21:56:00,
2013-09-14 18:01:00,83.0,75.4,29.83,ENE,73,5.0,13.0,78,0.00,,,0.00,0260,Weather View 32 v70,2013-09-14 22:01:00,
2013-09-14 18:06:00,83.0,75.4,29.83,ESE,118,6.0,13.0,78,0.00,,,0.00,0250,Weather View 32 v70,2013-09-14 22:06:00,
2013-09-14 18:11:00,83.0,75.8,29.84,East,96,8.0,13.0,79,0.00,,,0.00,0230,Weather View 32 v70,2013-09-14 22:11:00,
2013-09-14 18:16:00,83.0,75.8,29.84,East,96,6.0,13.0,79,0.00,,,0.00,0230,Weather View 32 v70,2013-09-14 22:16:00,
2013-09-14 18:21:00,83.0,76.2,29.84,ENE,73,8.0,13.0,80,0.00,,,0.00,0240,Weather View 32 v70,2013-09-14 22:21:00,
2013-09-14 18:26:00,83.0,76.2,29.84,ENE,73,8.0,13.0,80,0.00,,,0.00,0090,Weather View 32 v70,2013-09-14 22:26:00,
2013-09-14 18:31:00,82.0,75.2,29.84,ENE,73,5.0,15.0,80,0.00,,,0.00,0060,Weather View 32 v70,2013-09-14 22:31:00,
2013-09-14 18:36:00,82.0,75.6,29.84,ENE,73,3.0,15.0,81,0.00,,,0.00,0080,Weather View 32 v70,2013-09-14 22:36:00,
2013-09-14 18:41:00,82.0,75.9,29.84,ENE,73,3.0,15.0,82,0.00,,,0.00,0080,Weather View 32 v70,2013-09-14 22:41:00,
2013-09-14 18:46:00,82.0,76.3,29.84,ESE,118,8.0,15.0,83,0.00,,,0.00,0060,Weather View 32 v70,2013-09-14 22:46:00,
2013-09-14 18:49:00,82.0,76.7,29.84,East,96,11.0,15.0,84,0.00,,,0.00,0060,Weather View 32 v70,2013-09-14 22:49:00,
2013-09-14 18:54:00,82.0,77.0,29.84,East,96,8.0,15.0,85,0.00,,,0.00,0060,Weather View 32 v70,2013-09-14 22:54:00,
2013-09-14 18:59:00,81.0,76.0,29.84,ESE,118,5.0,15.0,85,0.00,,,0.00,0040,Weather View 32 v70,2013-09-14 22:59:00,
2013-09-14 19:04:00,81.0,76.4,29.84,NE,51,13.0,15.0,86,0.00,,,0.00,0030,Weather View 32 v70,2013-09-14 23:04:00,
2013-09-14 19:09:00,81.0,76.7,29.84,East,96,13.0,16.0,87,0.00,,,0.00,0020,Weather View 32 v70,2013-09-14 23:09:00,
2013-09-14 19:14:00,81.0,76.7,29.85,NE,51,6.0,16.0,87,0.00,,,0.00,0020,Weather View 32 v70,2013-09-14 23:14:00,
2013-09-14 19:19:00,81.0,76.7,29.86,NE,51,7.0,19.0,87,0.00,,,0.00,0010,Weather View 32 v70,2013-09-14 23:19:00,
2013-09-14 19:24:00,80.0,75.8,29.85,ENE,73,13.0,19.0,87,0.00,,,0.00,0010,Weather View 32 v70,2013-09-14 23:24:00,
2013-09-14 19:29:00,80.0,75.8,29.86,East,96,6.0,19.0,87,0.00,,,0.00,0010,Weather View 32 v70,2013-09-14 23:29:00,
2013-09-14 19:34:00,80.0,75.8,29.86,NE,51,7.0,19.0,87,0.00,,,0.00,0000,Weather View 32 v70,2013-09-14 23:34:00,
2013-09-14 19:39:00,80.0,75.8,29.86,ENE,73,3.0,19.0,87,0.00,,,0.00,0000,Weather View 32 v70,2013-09-14 23:39:00,
2013-09-14 19:44:00,80.0,75.8,29.86,ENE,73,12.0,19.0,87,0.00,,,0.00,0000,Weather View 32 v70,2013-09-14 23:44:00,
2013-09-14 19:49:00,80.0,75.8,29.86,NE,51,8.0,19.0,87,0.00,,,0.00,0000,Weather View 32 v70,2013-09-14 23:49:00,
2013-09-14 19:54:00,80.0,75.8,29.87,NE,51,8.0,19.0,87,0.00,,,0.00,0000,Weather View 32 v70,2013-09-14 23:54:00,
2013-09-14 19:59:00,80.0,75.8,29.87,NNE,28,8.0,19.0,87,0.00,,,0.00,0000,Weather View 32 v70,2013-09-14 23:59:00,
2013-09-14 20:04:00,80.0,75.8,29.88,NE,51,4.0,19.0,87,0.00,,,0.00,0000,Weather View 32 v70,2013-09-15 00:04:00,
2013-09-14 20:09:00,80.0,75.8,29.87,East,96,6.0,19.0,87,0.00,,,0.00,0000,Weather View 32 v70,2013-09-15 00:09:00,
2013-09-14 20:14:00,80.0,75.8,29.88,ENE,73,11.0,19.0,87,0.00,,,0.00,0000,Weather View 32 v70,2013-09-15 00:14:00,
2013-09-14 20:19:00,80.0,76.1,29.87,ESE,118,6.0,16.0,88,0.00,,,0.00,0000,Weather View 32 v70,2013-09-15 00:19:00,
2013-09-14 20:24:00,80.0,76.1,29.88,ENE,73,5.0,16.0,88,0.00,,,0.00,0000,Weather View 32 v70,2013-09-15 00:24:00,
2013-09-14 20:29:00,80.0,76.1,29.88,East,96,11.0,16.0,88,0.00,,,0.00,0000,Weather View 32 v70,2013-09-15 00:29:00,
2013-09-14 20:34:00,80.0,76.1,29.88,NE,51,5.0,17.0,88,0.00,,,0.00,0000,Weather View 32 v70,2013-09-15 00:34:00,
2013-09-14 20:39:00,80.0,75.8,29.89,ENE,73,11.0,17.0,87,0.00,,,0.00,0000,Weather View 32 v70,2013-09-15 00:39:00,
2013-09-14 20:44:00,80.0,75.8,29.89,ESE,118,6.0,17.0,87,0.00,,,0.00,0000,Weather View 32 v70,2013-09-15 00:44:00,
2013-09-14 20:49:00,80.0,75.8,29.89,ENE,73,6.0,17.0,87,0.00,,,0.00,0000,Weather View 32 v70,2013-09-15 00:49:00,
2013-09-14 20:54:00,80.0,75.8,29.89,East,96,6.0,17.0,87,0.00,,,0.00,0000,Weather View 32 v70,2013-09-15 00:54:00,
2013-09-14 20:59:00,80.0,75.8,29.89,ENE,73,8.0,17.0,87,0.00,,,0.00,0000,Weather View 32 v70,2013-09-15 00:59:00,
2013-09-14 21:04:00,80.0,75.8,29.90,ENE,73,9.0,17.0,87,0.00,,,0.00,0000,Weather View 32 v70,2013-09-15 01:04:00,
2013-09-14 21:09:00,80.0,75.8,29.90,NE,51,6.0,17.0,87,0.00,,,0.00,0000,Weather View 32 v70,2013-09-15 01:09:00,
2013-09-14 21:14:00,80.0,75.8,29.90,East,96,6.0,17.0,87,0.00,,,0.00,0000,Weather View 32 v70,2013-09-15 01:14:00,
2013-09-14 21:19:00,80.0,75.8,29.90,East,90,8.0,17.0,87,0.00,,,0.00,0000,Weather View 32 v70,2013-09-15 01:19:00,
2013-09-14 21:24:00,80.0,75.8,29.91,NE,51,8.0,17.0,87,0.00,,,0.00,0000,Weather View 32 v70,2013-09-15 01:24:00,
2013-09-14 21:29:00,80.0,75.8,29.91,NE,51,3.0,19.0,87,0.00,,,0.00,0000,Weather View 32 v70,2013-09-15 01:29:00,
2013-09-14 21:34:00,80.0,75.8,29.91,East,96,6.0,19.0,87,0.00,,,0.00,0000,Weather View 32 v70,2013-09-15 01:34:00,
2013-09-14 21:39:00,80.0,75.8,29.91,NNE,28,4.0,19.0,87,0.00,,,0.00,0000,Weather View 32 v70,2013-09-15 01:39:00,
2013-09-14 21:44:00,80.0,75.8,29.91,ESE,118,6.0,19.0,87,0.00,,,0.00,0000,Weather View 32 v70,2013-09-15 01:44:00,
2013-09-14 21:49:00,80.0,75.8,29.91,NNE,28,11.0,19.0,87,0.00,,,0.00,0000,Weather View 32 v70,2013-09-15 01:49:00,
2013-09-14 21:54:00,80.0,75.8,29.91,SE,141,6.0,19.0,87,0.00,,,0.00,0000,Weather View 32 v70,2013-09-15 01:54:00,
2013-09-14 21:59:00,80.0,75.8,29.91,East,96,5.0,19.0,87,0.00,,,0.00,0000,Weather View 32 v70,2013-09-15 01:59:00,
2013-09-14 22:04:00,80.0,75.8,29.91,East,96,5.0,19.0,87,0.00,,,0.00,0000,Weather View 32 v70,2013-09-15 02:04:00,
2013-09-14 22:09:00,80.0,75.8,29.91,ESE,118,5.0,19.0,87,0.00,,,0.00,0000,Weather View 32 v70,2013-09-15 02:09:00,
2013-09-14 22:14:00,80.0,75.8,29.91,ENE,73,8.0,19.0,87,0.00,,,0.00,0000,Weather View 32 v70,2013-09-15 02:14:00,
2013-09-14 22:19:00,80.0,75.8,29.91,ESE,118,7.0,19.0,87,0.00,,,0.00,0000,Weather View 32 v70,2013-09-15 02:19:00,
2013-09-14 22:24:00,80.0,75.8,29.91,ENE,73,3.0,19.0,87,0.00,,,0.00,0000,Weather View 32 v70,2013-09-15 02:24:00,
2013-09-14 22:29:00,80.0,75.8,29.92,ENE,73,8.0,16.0,87,0.00,,,0.00,0000,Weather View 32 v70,2013-09-15 02:29:00,
2013-09-14 22:34:00,80.0,75.8,29.92,East,96,6.0,16.0,87,0.00,,,0.00,0000,Weather View 32 v70,2013-09-15 02:34:00,
2013-09-14 22:39:00,80.0,75.8,29.92,NNE,28,8.0,16.0,87,0.00,,,0.00,0000,Weather View 32 v70,2013-09-15 02:39:00,
2013-09-14 22:44:00,80.0,75.8,29.92,ENE,73,3.0,16.0,87,0.00,,,0.00,0000,Weather View 32 v70,2013-09-15 02:44:00,
2013-09-14 22:49:00,80.0,75.8,29.92,NE,51,6.0,16.0,87,0.00,,,0.00,0000,Weather View 32 v70,2013-09-15 02:49:00,
2013-09-14 22:54:00,80.0,75.8,29.92,East,96,8.0,16.0,87,0.00,,,0.00,0000,Weather View 32 v70,2013-09-15 02:54:00,
2013-09-14 22:59:00,80.0,75.8,29.92,East,96,8.0,16.0,87,0.00,,,0.00,0000,Weather View 32 v70,2013-09-15 02:59:00,
2013-09-14 23:04:00,80.0,75.8,29.92,ENE,73,8.0,16.0,87,0.00,,,0.00,0000,Weather View 32 v70,2013-09-15 03:04:00,
2013-09-14 23:09:00,80.0,75.8,29.92,East,96,3.0,16.0,87,0.00,,,0.00,0000,Weather View 32 v70,2013-09-15 03:09:00,
2013-09-14 23:14:00,80.0,76.1,29.92,East,96,8.0,16.0,88,0.00,,,0.00,0000,Weather View 32 v70,2013-09-15 03:14:00,
2013-09-14 23:19:00,80.0,76.1,29.93,NE,51,5.0,15.0,88,0.00,,,0.00,0000,Weather View 32 v70,2013-09-15 03:19:00,
2013-09-14 23:24:00,79.0,75.1,29.93,East,96,5.0,15.0,88,0.00,,,0.00,0000,Weather View 32 v70,2013-09-15 03:24:00,
2013-09-14 23:29:00,79.0,75.5,29.93,ESE,118,2.0,15.0,89,0.01,,,0.01,0000,Weather View 32 v70,2013-09-15 03:29:00,
2013-09-14 23:34:00,79.0,75.8,29.93,East,96,5.0,15.0,90,0.01,,,0.01,0000,Weather View 32 v70,2013-09-15 03:34:00,
2013-09-14 23:39:00,79.0,76.1,29.93,ESE,118,4.0,15.0,91,0.01,,,0.01,0000,Weather View 32 v70,2013-09-15 03:39:00,
2013-09-14 23:44:00,79.0,75.8,29.93,ENE,73,4.0,15.0,90,0.01,,,0.01,0000,Weather View 32 v70,2013-09-15 03:44:00,
2013-09-14 23:49:00,79.0,76.1,29.93,East,96,3.0,12.0,91,0.01,,,0.01,0000,Weather View 32 v70,2013-09-15 03:49:00,
2013-09-14 23:54:00,79.0,75.8,29.93,East,96,7.0,12.0,90,0.01,,,0.01,0000,Weather View 32 v70,2013-09-15 03:54:00,
2013-09-14 23:59:00,79.0,75.8,29.93,NE,51,2.0,12.0,90,0.01,,,0.01,0000,Weather View 32 v70,2013-09-15 03:59:00,